Hourly Data Report for October 26, 2015

All times are specified in Local Standard Time (LST). Add 1 hour to adjust for Daylight Saving Time where and when it is observed.

QIKIQTARJUAQ A
NUNAVUT

67°32'48.000" N
64°01'54.000" W
5.50 m
2400577
YVM

Download Data

Hourly Data (October 2015)
Hourly Data Report for October 26, 2015
Temp Definition
°C
Dew Point Temp Definition
°C
Rel Hum Definition
%
Wind Dir Definition
10's deg

Wind Spd Definition
km/h
Visibility Definition
km
Stn Press Definition
kPa
Hmdx Definition


Wind Chill Definition


Weather Definition


TIME
00:00 Legend Double Dagger -5.4 -9.1 76 2 22 16.1 98.53   -12 Snow
01:00 Legend Double Dagger -5.4 -10.0 70 2 24 16.1 98.54   -13 LegendNANA
02:00 Legend Double Dagger -5.6 -11.2 65 2 18 16.1 98.58   -12 LegendNANA
03:00 Legend Double Dagger -5.7 -11.6 63 2 21 16.1 98.58   -13 Snow
04:00 Legend Double Dagger -6.4 -12.0 65 11 13 16.1 98.62   -12 LegendNANA
05:00 Legend Double Dagger -7.0 -11.0 73 12 15 16.1 98.66   -13 Snow
06:00 Legend Double Dagger -6.4 -12.7 61 10 18 16.1 98.70   -13 Snow
07:00 Legend Double Dagger -6.8 -13.4 60 13 18 16.1 98.74   -13 LegendNANA
08:00 Legend Double Dagger -6.8 -12.9 62 12 13 16.1 98.77   -12 LegendNANA
09:00 Legend Double Dagger -7.3 -14.9 55 16 18 16.1 98.81   -14 LegendNANA
10:00 Legend Double Dagger -6.9 -16.6 46 LegendMM 4 16.1 98.85   -9 LegendNANA
11:00 Legend Double Dagger -7.2 -18.4 41 17 17 16.1 98.90   -14 LegendNANA
12:00 Legend Double Dagger -7.1 -15.7 51 23 11 16.1 98.95   -12 LegendNANA
13:00 Legend Double Dagger -7.1 -13.9 59 25 8 16.1 98.98   -11 LegendNANA
14:00 Legend Double Dagger -7.3 -16.9 47 18 11 16.1 99.03   -12 LegendNANA
15:00 Legend Double Dagger -6.9 -14.1 57 2 28 16.1 99.11   -15 LegendNANA
16:00 Legend Double Dagger -7.2 -13.9 59 2 22 16.1 99.20   -15 LegendNANA
17:00 Legend Double Dagger -7.3 -14.8 55 1 21 16.1 99.26   -15 LegendNANA
18:00 Legend Double Dagger -7.7 -13.8 62 27 13 16.1 99.33   -13 LegendNANA
19:00 Legend Double Dagger -9.4 -17.4 53 16 13 16.1 99.40   -15 LegendNANA
20:00 Legend Double Dagger -9.4 -18.3 49 16 18 16.1 99.44   -17 LegendNANA
21:00 Legend Double Dagger -9.5 -19.5 44 17 15 16.1 99.51   -16 LegendNANA
22:00 Legend Double Dagger -10.1 -20.0 45 16 13 16.1 99.54   -16 LegendNANA
23:00 Legend Double Dagger -12.6 -18.2 63 16 15 16.1 99.59   -20 LegendNANA

Notes on Data Quality.

Legend

  • E = Estimated
  • M = Missing
  • NA = Not Available
  • ‡ = Partner data that is not subject to review by the National Climate Archives
Date modified: